Regional Weather Roundup
Issued by NWS Green Bay, WI

Home | Current Version | Previous Version | Graphics & Text | Print | Product List | Glossary Off
Versions: 1 2 3 4 5 6 7 8 9 10 11 12 13 14 15 16 17 18 19 20 21 22 23 24 25 26 27 28 29 30 31 32 33 34 35 36 37 38 39 40 41 42 43 44 45 46 47 48 49 50

000
ASUS43 KGRB 301310
RWRGRB

NORTH-CENTRAL AND NORTHEAST WISCONSIN REGIONAL WEATHER ROUNDUP
NATIONAL WEATHER SERVICE GREEN BAY WI
800 AM CDT THU OCT 30 2014

WIZ005-009-010>012-018-019-301400-
NORTH CENTRAL WISCONSIN

CITY           SKY/WX    TMP DP  RH WIND       PRES   REMARKS
IRONWOOD       CLOUDY    37  34  87 W6        30.01S
MANITOWISH WTR CLOUDY    35  33  91 CALM      30.01F
ARBOR VITAE    CLOUDY    37  33  88 SW3       30.02S
EAGLE RIVER    CLOUDY    36  31  85 CALM      30.02S
LAND O LAKES   CLOUDY    36  34  92 CALM      30.02F
RHINELANDER    CLOUDY    36  32  85 SW3       30.03F
PHILLIPS       CLOUDY    35  32  88 W3        30.03S
ANTIGO         CLOUDY    33  32  97 CALM      30.05S
TOMAHAWK       CLOUDY    34  31  89 CALM      30.04S
MERRILL        CLOUDY    32  32 100 CALM      30.05S
$$

WIZ013-073-301400-
NORTHEAST WISCONSIN

CITY           SKY/WX    TMP DP  RH WIND       PRES   REMARKS
IRON MOUNTAIN  CLOUDY    39  34  82 CALM      30.03S
MARINETTE      CLOUDY    39  34  81 W3        30.06S
OCONTO         MOCLDY    37  36  96 CALM      30.07F
$$

WIZ017-030-035>037-045-301400-
CENTRAL WISCONSIN

CITY           SKY/WX    TMP DP  RH WIND       PRES   REMARKS
MEDFORD        CLOUDY    33  32  95 CALM      30.04S
WAUSAU         CLOUDY    34  32  92 E3        30.04F
MOSINEE        PTCLDY    32  32 100 CALM      30.06F
MARSHFIELD     CLOUDY    33  31  92 SW3       30.06S
WISC RAPIDS    MOCLDY    33  31  92 SW3       30.09S
STEVENS POINT  MOCLDY    30  30  98 CALM      30.07S
WAUPACA        CLOUDY    35  33  94 CALM      30.09R
SHAWANO        CLOUDY    37  34  87 CALM      30.08R
CLINTONVILLE   CLOUDY    34  34 100 CALM      30.07F
$$

WIZ038-039-048-051-301400-
FOX VALLEY

CITY           SKY/WX    TMP DP  RH WIND       PRES   REMARKS
NWS GREEN BAY  CLOUDY    38  35  89 SW3       30.09R
APPLETON       MOCLDY    36  36 100 SW6       30.08S
OSHKOSH        CLOUDY    36  33  89 SW5       30.08S
FOND DU LAC    MOCLDY    34  31  88 S3        30.09F
$$

WIZ022-050-052-301400-
EAST CENTRAL WISCONSIN

CITY           SKY/WX    TMP DP  RH WIND       PRES   REMARKS
STURGEON BAY   CLOUDY    39  34  81 S5        30.08S
MANITOWOC      CLOUDY    38  36  92 SW5       30.09F
SHEBOYGAN      MOCLDY    35  31  85 CALM      30.09F
$$

LMZ563-521-522-541>543-301400-
LAKESHORE

STATION/POSITION TIME  TEMP    WIND        PRES    VSBY  WAVE
                       AIR SEA DIR/SP/G                  HT/PER
                 (UTC) (F)     (DEG/KT/KT) (MB)    (MI)  (FT/S)
SHEBOYGAN LKSHOR 1300   39 49  250/  6/  7 1019.9F
KEWAUNEE LKSHORE 1300   38     300/  4/  5 1017.8R
TWO RIVERS CG    1200   38                 1019.2
NORTHPORT PIER   1300   43     170/  1/  3 1017.9F
N MID LAKE BUOY  1300   43 51  170/  6/  8 1018.7F         0
STURGEON BAY CG  1200   41 46  230/  2     1019.2      6   1
CHAMBERS ISLAND  1300   44     210/  4/  7 1018.3S
MENOMINEE LKSHOR 1300   41     210/  5/  6 1018.6F
$$



USA.gov is the U.S. government's official web portal to all federal, state and local government web resources and services.